Location: Edinburgh
(55.9500°N, 3.1600°W)
Time: 14:25:14
(UTC+00:00)

ZACube-1 - Visible Passes

Search period start: 17 November 2019 00:00
Search period end: 27 November 2019 00:00
Orbit: 585 x 666 km, 97.6° (Epoch: 17 November)

Date Brightness Start Highest point End Pass type
(mag) Time Alt. Az. Time Alt. Az. Time Alt. Az.
17 Nov ? 06:08:12 10° NNE 06:12:30 38° E 06:16:41 10° SSE visible
17 Nov ? 17:10:31 10° SSE 17:15:02 72° ENE 17:19:39 10° NNW visible
17 Nov ? 18:48:24 10° SW 18:51:47 20° W 18:55:14 10° NW visible
18 Nov ? 06:27:06 10° NNE 06:31:36 55° E 06:35:59 10° S visible
18 Nov ? 17:29:29 10° SSE 17:34:02 82° WSW 17:38:40 10° NNW visible
18 Nov ? 19:08:31 10° WSW 19:11:03 15° W 19:13:37 10° NW visible
19 Nov ? 05:11:17 10° NE 05:13:35 14° E 05:15:52 10° ESE visible
19 Nov ? 06:46:04 10° NNE 06:50:39 79° ESE 06:55:06 10° SSW visible
19 Nov ? 17:48:35 10° S 17:53:05 57° W 17:57:38 10° NNW visible
19 Nov ? 19:30:09 10° W 19:30:22 10° W 19:30:36 10° WNW visible
20 Nov ? 05:29:35 10° NE 05:32:51 19° E 05:36:04 10° SE visible
20 Nov ? 07:05:06 10° NNE 07:09:39 74° WNW 07:14:04 10° SSW visible
20 Nov ? 18:07:53 10° SSW 18:12:11 40° W 18:16:33 10° NNW visible
21 Nov ? 05:48:12 10° NNE 05:52:04 27° E 05:55:49 10° SSE visible
21 Nov ? 16:50:25 10° SE 16:54:51 50° ENE 16:59:18 10° N visible
21 Nov ? 18:27:21 10° SSW 18:31:20 29° W 18:35:21 10° NNW visible
22 Nov ? 06:06:59 10° NNE 06:11:13 38° E 06:15:20 10° SSE visible
22 Nov ? 17:09:14 10° SSE 17:13:47 71° ENE 17:18:23 10° NNW visible
22 Nov ? 18:47:05 10° SW 18:50:31 21° W 18:54:00 10° NW visible
23 Nov ? 06:25:52 10° NNE 06:30:19 54° E 06:34:38 10° S visible
23 Nov ? 17:28:11 10° SSE 17:32:47 82° WSW 17:37:25 10° NNW visible
23 Nov ? 19:07:11 10° WSW 19:09:47 15° W 19:12:22 10° NW visible
24 Nov ? 05:10:06 10° NE 05:12:17 13° E 05:14:26 10° ESE visible
24 Nov ? 06:44:50 10° NNE 06:49:22 78° ESE 06:53:46 10° S visible
24 Nov ? 17:47:18 10° S 17:51:49 58° W 17:56:22 10° NNW visible
24 Nov ? 19:28:35 10° W 19:29:05 10° W 19:29:34 10° WNW visible
25 Nov ? 05:28:22 10° NE 05:31:33 19° E 05:34:40 10° SE visible
25 Nov ? 07:03:51 10° NNE 07:08:22 74° WNW 07:12:43 10° SSW visible
25 Nov ? 16:30:30 10° SE 16:34:41 36° ENE 16:38:53 10° N visible
25 Nov ? 18:06:36 10° SSW 18:10:55 40° W 18:15:16 10° NNW visible
26 Nov ? 05:46:59 10° NE 05:50:46 26° E 05:54:27 10° SSE visible
26 Nov ? 07:22:56 10° N 07:27:18 52° WNW 07:31:32 10° SW visible
26 Nov ? 16:49:09 10° SE 16:53:35 50° ENE 16:58:01 10° N visible
26 Nov ? 18:26:04 10° SSW 18:30:03 29° W 18:34:04 10° NNW visible
